Regional Weather Roundup
Issued by NWS Newport/Morehead, NC

Current Version | Previous Version | Text Only | Print | Product List | Glossary On
Versions: 1 2 3 4 5 6 7 8 9 10 11 12 13 14 15 16 17 18 19 20 21 22 23 24 25 26 27 28 29 30 31 32 33 34 35 36 37 38 39 40 41 42 43 44 45 46 47 48 49 50
000 ASUS42 KMHX 211322 RWRMHX WEATHER ROUNDUP FOR EASTERN NORTH CAROLINA NATIONAL WEATHER SERVICE NEWPORT/MOREHEAD CITY NC 900 AM EDT THU AUG 21 2014 NOTE: "FAIR" INDICATES FEW OR NO CLOUDS BELOW 12,000 FEET WITH NO SIGNIFICANT WEATHER AND/OR OBSTRUCTIONS TO VISIBILITY NCZ015>017-031-032-045>047-102-103-211400- NORTH COAST CITY SKY/WX TMP DP RH WIND PRES REMARKS EDENTON PTSUNNY 76 74 95 S3 30.06S ELIZABETH CITY PTSUNNY 79 76 90 SW7 30.05R FOG KITTY HAWK MOSUNNY 82 76 83 S5 30.04S MANTEO MOSUNNY 81 75 83 S6 30.05S $$ NCZ045>047-081-094-103-104-211400- CENTRAL COAST CITY SKY/WX TMP DP RH WIND PRES REMARKS FRISCO SUNNY 80 75 84 SW7 30.06R SWANQUARTER N/A 84 N/A N/A S3G9 30.03S $$ NCZ095-097-098-100-101-211400- SOUTHERN COAST CITY SKY/WX TMP DP RH WIND PRES REMARKS BEAUFORT PTSUNNY 83 78 85 SW5 30.05S CEDAR ISLAND N/A 84 N/A N/A S7 30.09S JACKSONVILLE MOSUNNY 81 78 91 SW5 30.05S NEWPORT NOT AVBL PINEY ISLAND MOSUNNY 81 79 94 S5 30.05S WILMINGTON SUNNY 83 80 91 CALM 30.05S $$ NCZ011>013-027>030-043-044-078>080-089-090>093-098-211400- COASTAL PLAIN CITY SKY/WX TMP DP RH WIND PRES REMARKS AHOSKIE MOSUNNY 75 73 92 CALM 30.06R CLINTON SUNNY 81 77 86 NW3 30.07R ELIZABETHTOWN MOSUNNY 81 75 81 NW3 30.06S GOLDSBORO SUNNY 79 78 98 VRB2 30.04R FOG GREENVILLE SUNNY 81 75 83 CALM 30.07R HAVELOCK MOSUNNY 83 78 85 SW7 30.06S KENANSVILLE SUNNY 78 75 90 CALM 30.07R KINSTON SUNNY 79 75 89 CALM 30.06S FOG NEW BERN MOSUNNY 84 79 84 SW5 30.06S RICHLANDS MOSUNNY 81 75 83 W3 30.06S ROANOKE RAPIDS NOT AVBL ROCKY MOUNT MOSUNNY 79 74 84 VRB5 30.06R WASHINGTON MOSUNNY 79 74 84 SW3 30.06R WHITEVILLE SUNNY 82 76 79 CALM 30.05S $$ AMZ130-135-150-152-154-156-158-170-250-252-270-ANZ085-086-088-633-658-670-211400- MARINE OBSERVATIONS STATION/POSITION TIME TEMP WIND PRES WAVE SWELL AIR SEA DIR/SP/G HT/PER HT/PER (UTC) (F) (DEG/KT/KT) (MB) (FT/S) (FT/S) CHESAPEAKE LIGHT 1300 77 170/ 12/ 12 1017.5 BUOY 44014 1300 77 78 180/ 6/ 6 1017.1 2/ 7 2/ 7 DUCK 1300 80 78 190/ 7/ 10 1016.7 2E DUCK 1300 N/A 2/ 6 OREGON INLET 1300 80 81 230/ 7/ 9 1017.7 BUOY 44095 1300 80 N/A 3/ 8 20E OREGON INLET NOT AVBL HATTERAS CG 1300 82 81 210/ 5/ 7 1018.3 DIAMOND BUOY 1300 80 190/ 6/ 8 1017.8 2/ 9 2/ 9 CAPE LOOKOUT 1300 82 190/ 5/ 6 1017.6 BEAUFORT LAB 1300 82 82 210/ 5/ 7 1017.4 30 SE NEW RIVER 1300 82 82 220/ 4/ 4 1017.3 2/ 6 2/ 6 5 SE WRIGHTSVILL 1300 80 82 200/ 4/ 6 N/A BUOY 41002 1213 82 81 260/ 14/ 16 1019.2 3/ 5 2/ 8 BUOY 41004 1300 83 84 280/ 8/ 10 1017.3 2/ 5 2/ 5 $$

USA.gov is the U.S. government's official web portal to all federal, state and local government web resources and services.